M7VJL-13 Weather Reports


Display with metric or nautical units.
time (UTC)temp
F
wind
direction
speed
MPH
gust
MPH
rain 1hr
in
rain 24hr
in
rain mn
in
humidity
%
barometer
mb
20260510173004 50 90 2.0 8.0 0.00 0.00 0.00 59 1016.0
20260510171507 50 82 1.0 8.0 0.00 0.00 0.00 60 1016.1
20260510170015 51 121 2.0 7.0 0.00 0.00 0.00 60 1016.2
20260510164518 51 130 3.0 9.0 0.00 0.00 0.00 58 1016.4
20260510163023 51 121 1.0 8.0 0.00 0.00 0.00 60 1016.5
20260510161508 51 141 3.0 10.0 0.00 0.00 0.00 60 1016.6
20260510160011 52 290 2.0 8.0 0.00 0.00 0.00 60 1016.8
20260510154514 52 355 3.0 9.0 0.00 0.00 0.00 60 1017.0
20260510153019 52 78 3.0 10.0 0.00 0.00 0.00 61 1017.0
20260510151525 52 136 2.0 9.0 0.00 0.00 0.00 61 1017.2
20260510150008 52 146 2.0 9.0 0.00 0.00 0.00 61 1017.3
20260510144511 52 334 1.0 8.0 0.00 0.00 0.00 61 1017.3
20260510143016 53 130 1.0 9.0 0.00 0.00 0.00 61 1017.5
20260510141525 54 62 3.0 8.0 0.00 0.00 0.00 61 1017.6
20260510140023 53 110 2.0 12.0 0.00 0.00 0.00 62 1017.7
20260510134511 54 142 3.0 10.0 0.00 0.00 0.00 59 1017.7
20260510133020 54 159 3.0 9.0 0.00 0.00 0.00 60 1017.8
20260510131520 54 360 2.0 9.0 0.00 0.00 0.00 59 1018.1
20260510130024 54 65 2.0 12.0 0.00 0.00 0.00 60 1018.2
20260510124530 54 360 3.0 10.0 0.00 0.00 0.00 60 1018.3
20260510123014 54 41 4.0 10.0 0.00 0.00 0.00 62 1018.5
20260510121516 55 72 4.0 11.0 0.00 0.00 0.00 59 1018.5
20260510120004 53 298 3.0 11.0 0.00 0.00 0.00 65 1018.7
20260510114508 54 20 2.0 8.0 0.00 0.00 0.00 66 1018.9
20260510113010 53 214 3.0 12.0 0.00 0.00 0.00 68 1019.1
20260510111515 52 51 2.0 10.0 0.00 0.00 0.00 68 1019.3
20260510110006 52 285 2.0 9.0 0.00 0.00 0.00 67 1019.3
20260510104504 52 113 2.0 7.0 0.00 0.00 0.00 69 1019.3
20260510103008 52 341 3.0 9.0 0.00 0.00 0.00 69 1019.5
20260510101513 52 117 2.0 8.0 0.00 0.00 0.00 69 1019.6
20260510094517 50 44 2.0 11.0 0.00 0.00 0.00 71 1019.8
20260510093004 50 315 2.0 9.0 0.00 0.00 0.00 72 1019.9
20260510084520 50 342 2.0 7.0 0.00 0.00 0.00 76 1020.0
20260510083004 50 318 2.0 9.0 0.00 0.00 0.00 77 1020.0
20260510081508 49 121 2.0 9.0 0.00 0.00 0.00 79 1020.0
20260510080009 49 152 3.0 9.0 0.00 0.00 0.00 80 1019.9
20260510074517 49 355 2.0 7.0 0.00 0.00 0.00 80 1019.9
20260510073021 49 21 2.0 8.0 0.00 0.00 0.00 79 1019.9
20260510071505 49 278 3.0 11.0 0.00 0.00 0.00 79 1019.8
20260510063017 48 313 2.0 8.0 0.00 0.00 0.00 81 1019.6
20260510061529 48 288 3.0 11.0 0.00 0.00 0.00 81 1019.6
20260510060041 48 150 1.0 8.0 0.00 0.00 0.00 82 1019.6
20260510054511 48 191 3.0 10.0 0.00 0.00 0.00 83 1019.6
20260510051521 48 247 2.0 8.0 0.00 0.00 0.00 84 1019.4
20260510050023 48 290 3.0 7.0 0.00 0.00 0.00 84 1019.5
20260510044526 48 35 2.0 9.0 0.00 0.00 0.00 84 1019.2
20260510040021 48 301 2.0 14.0 0.00 0.00 0.00 86 1019.4
20260510034523 48 338 3.0 12.0 0.00 0.00 0.00 87 1019.3
20260510033026 49 290 4.0 11.0 0.00 0.00 0.00 87 1019.4
20260510030003 48 298 3.0 10.0 0.00 0.00 0.00 88 1019.7
20260510021511 48 290 2.0 7.0 0.00 0.00 0.00 89 1019.8
20260510014504 49 317 2.0 9.0 0.00 0.00 0.00 88 1019.7
20260510004520 48 53 2.0 8.0 0.00 0.00 0.00 91 1019.7
20260510003005 47 306 2.0 9.0 0.00 0.00 0.00 92 1019.8
20260510001507 46 313 1.0 8.0 0.00 0.00 0.00 91 1020.0
20260510000011 46 350 1.0 7.0 0.00 0.00 0.00 91 1020.0
20260509234520 46 302 1.0 7.0 0.00 0.00 0.00 91 1020.2
20260509233022 46 323 1.0 4.0 0.00 0.00 0.00 90 1020.4
20260509230011 46 313 0.0 4.0 0.00 0.00 0.00 89 1020.2
20260509224515 47 283 0.0 4.0 0.00 0.00 0.00 88 1020.1
20260509221525 47 275 0.0 5.0 0.00 0.00 0.00 87 1020.0
20260509220026 47 11 0.0 7.0 0.00 0.00 0.00 85 1019.8
20260509214513 48 5 1.0 6.0 0.00 0.00 0.00 83 1019.5
20260509211545 50 326 0.0 8.0 0.00 0.00 0.00 80 1019.5
20260509210021 50 24 2.0 8.0 0.00 0.00 0.00 79 1019.5
20260509204526 51 26 0.0 6.0 0.00 0.00 0.00 77 1019.6
20260509201504 52 325 0.0 4.0 0.00 0.00 0.00 72 1019.1
20260509200003 53 72 1.0 4.0 0.00 0.00 0.00 70 1019.1
20260509194504 53 50 0.0 8.0 0.00 0.00 0.00 67 1018.7
20260509193004 55 76 0.0 4.0 0.00 0.00 0.00 65 1018.6
20260509191504 56 66 1.0 8.0 0.00 0.00 0.00 60 1018.5
20260509190003 57 224 1.0 4.0 0.00 0.00 0.00 57 1018.2
20260509184503 59 67 1.0 8.0 0.00 0.00 0.00 54 1018.1
20260509183011 60 122 1.0 3.0 0.00 0.00 0.00 50 1017.9
20260509181504 60 304 1.0 5.0 0.00 0.00 0.00 49 1017.8
20260509180003 62 42 1.0 4.0 0.00 0.00 0.00 47 1017.8
20260509174506 62 119 2.0 7.0 0.00 0.00 0.00 47 1017.7